sat.trackr.live / text

‹ back to catalog

STARLINK-31764

NORAD 59653 · 2024-082Y

PAYLOAD ACTIVE UNKNOWN

§ Identity

Operator
Country
US
Launch date
2024-05-03
Launch site
AFETR
Launch vehicle
Mass (kg)
RCS (m²)

Purposes: comms

External: N2YO · Heavens-Above · Gunter

§ Orbital elements

Epoch: 2026-09-20T23:54:41.030208Z

Period
94.27 min
Inclination
43.0033°
Eccentricity
0.0001482
Mean motion
15.27579299 rev/d
Perigee alt
482.0 km
Apogee alt
484.1 km
Semi-major
6,861.2 km
B*
1.9735e-5
RAAN
116.6354°
Arg perigee
263.0760°
Mean anomaly
96.9923°
Rev number
13,488

§ Raw data

STARLINK-317641 59653U 24082Y   26263.99630822  .00000281  00000+0  19735-4 0  99912 59653  43.0033 116.6354 0001482 263.0760  96.9923 15.27579299134886

JSON: /api/v1/satellites/59653 · /tle

For live sub-satellite position, see the globe view (requires WebGL).

§ Visibility from observer

Set your observer location to see the next 7 days of passes ≥ 10°. The values pass through the URL so the page stays shareable.

No JS? Fill the form by hand. The geolocation button needs JavaScript.